QPF
0.06 0.06 0.05 0.05 0.05 0.05 0.05 0.05 0.07 0.05 0.05 0.05 0.05 0.05 0.03 0.03 0.02 0.01 0.02 0.01 0.01 0.01 0.01 0.01 0.02 0.02 0.02 0.02 0.02 0.03 0.03 0.04 0.04 0.04 0.04 0.04 0.04 0.03
0.05 0.05 0.05 0.04 0.04 0.05 0.05 0.05 0.06 0.06 0.05 0.04 0.04 0.04 0.03 0.02 0.03 0.03 0.02 0.02 0.02 0.01 0.01 0.01 0.02 0.02 0.02 0.01 0.02 0.02 0.03 0.03 0.03 0.03 0.03 0.03 0.03 0.03
0.04 0.05 0.04 0.04 0.04 0.05 0.05 0.06 0.06 0.08 0.06 0.04 0.04 0.04 0.05 0.04 0.04 0.04 0.04 0.03 0.03 0.02 0.02 0.01 0.01 0.02 0.02 0.02 0.02 0.03 0.03 0.03 0.03 0.03 0.03 0.02 0.02 0.02
0.03 0.03 0.03 0.05 0.06 0.06 0.07 0.06 0.07 0.09 0.08 0.05 0.04 0.05 0.07 0.07 0.07 0.06 0.04 0.03 0.03 0.02 0.02 0.02 0.01 0.01 0.02 0.03 0.03 0.04 0.04 0.04 0.04 0.04 0.04 0.04 0.04 0.03
0.02 0.03 0.03 0.05 0.05 0.06 0.06 0.06 0.07 0.09 0.09 0.08 0.05 0.05 0.06 0.07 0.09 0.07 0.05 0.05 0.02 0.02 0.02 0.02 0.02 0.02 0.02 0.01 0.03 0.04 0.05 0.05 0.04 0.04 0.05 0.06 0.06 0.05
0.03 0.04 0.04 0.04 0.04 0.05 0.05 0.06 0.06 0.07 0.08 0.08 0.07 0.05 0.05 0.07 0.09 0.08 0.07 0.05 0.03 0.02 0.03 0.04 0.04 0.04 0.03 0.02 0.02 0.03 0.04 0.05 0.05 0.05 0.05 0.05 0.06 0.06
0.02 0.03 0.03 0.03 0.04 0.06 0.05 0.05 0.06 0.07 0.08 0.08 0.08 0.07 0.06 0.07 0.08 0.07 0.07 0.05 0.04 0.04 0.04 0.05 0.05 0.04 0.03 0.03 0.03 0.04 0.04 0.06 0.06 0.06 0.06 0.06 0.06 0.06
0.02 0.02 0.02 0.02 0.04 0.05 0.05 0.04 0.06 0.08 0.08 0.08 0.08 0.06 0.05 0.06 0.06 0.06 0.06 0.05 0.04 0.04 0.06 0.05 0.05 0.04 0.04 0.04 0.03 0.03 0.04 0.05 0.05 0.06 0.07 0.07 0.06 0.06
0.01 0.02 0.02 0.02 0.03 0.03 0.04 0.03 0.05 0.06 0.06 0.07 0.07 0.05 0.05 0.06 0.08 0.07 0.07 0.06 0.04 0.05 0.06 0.04 0.06 0.06 0.06 0.05 0.04 0.03 0.03 0.04 0.05 0.05 0.06 0.07 0.07 0.07
0.02 0.02 0.03 0.03 0.03 0.03 0.03 0.03 0.03 0.04 0.04 0.05 0.06 0.06 0.05 0.06 0.07 0.06 0.06 0.06 0.06 0.06 0.09 0.08 0.07 0.07 0.06 0.05 0.05 0.04 0.04 0.05 0.07 0.06 0.06 0.07 0.08 0.07
0.03 0.03 0.03 0.03 0.02 0.02 0.03 0.03 0.03 0.04 0.04 0.03 0.04 0.06 0.05 0.04 0.05 0.06 0.06 0.06 0.05 0.06 0.09 0.10 0.09 0.10 0.09 0.08 0.07 0.07 0.06 0.06 0.06 0.06 0.05 0.05 0.06 0.07
0.03 0.03 0.03 0.03 0.02 0.01 0.02 0.03 0.04 0.04 0.03 0.03 0.04 0.05 0.05 0.04 0.05 0.05 0.04 0.04 0.04 0.05 0.07 0.09 0.08 0.11 0.10 0.07 0.05 0.05 0.06 0.06 0.06 0.04 0.03 0.03 0.04 0.04
0.01 0.01 0.01 0.02 0.02 0.01 0.01 0.02 0.03 0.03 0.03 0.04 0.04 0.04 0.05 0.05 0.04 0.03 0.03 0.04 0.04 0.05 0.07 0.10 0.08 0.11 0.11 0.08 0.07 0.06 0.04 0.04 0.05 0.04 0.04 0.03 0.04 0.04
0.01 0.01 0.01 0.01 0.01 0.01 0.01 0.02 0.03 0.04 0.03 0.03 0.03 0.03 0.03 0.04 0.04 0.04 0.03 0.04 0.04 0.04 0.07 0.11 0.10 0.10 0.12 0.10 0.07 0.06 0.05 0.05 0.05 0.04 0.03 0.04 0.04 0.05
0.01 0.01 0.01 0.01 0.01 0.01 0.02 0.02 0.03 0.04 0.04 0.04 0.04 0.03 0.02 0.02 0.03 0.04 0.04 0.04 0.05 0.04 0.05 0.08 0.08 0.09 0.11 0.10 0.08 0.08 0.07 0.06 0.06 0.05 0.05 0.06 0.06 0.06
0.01 0.01 0.02 0.02 0.02 0.03 0.03 0.03 0.04 0.04 0.04 0.04 0.04 0.05 0.05 0.04 0.03 0.04 0.05 0.05 0.05 0.04 0.05 0.07 0.08 0.10 0.10 0.10 0.10 0.08 0.07 0.06 0.06 0.06 0.06 0.07 0.07 0.09
0.01 0.02 0.03 0.03 0.03 0.03 0.03 0.03 0.04 0.04 0.04 0.03 0.04 0.05 0.06 0.06 0.04 0.03 0.04 0.05 0.05 0.05 0.06 0.07 0.08 0.09 0.08 0.09 0.10 0.08 0.07 0.06 0.06 0.07 0.07 0.07 0.08 0.08
0.02 0.02 0.02 0.02 0.02 0.02 0.03 0.03 0.04 0.04 0.04 0.03 0.04 0.05 0.07 0.06 0.05 0.04 0.05 0.05 0.06 0.06 0.07 0.08 0.08 0.10 0.09 0.08 0.08 0.08 0.07 0.06 0.05 0.06 0.07 0.08 0.09 0.09
0.04 0.03 0.02 0.02 0.02 0.02 0.02 0.02 0.04 0.05 0.05 0.05 0.06 0.07 0.08 0.07 0.06 0.05 0.06 0.06 0.06 0.06 0.07 0.07 0.08 0.08 0.08 0.07 0.06 0.06 0.07 0.06 0.07 0.06 0.06 0.05 0.05 0.06
0.05 0.04 0.03 0.03 0.03 0.03 0.04 0.04 0.04 0.04 0.05 0.06 0.09 0.09 0.09 0.09 0.08 0.07 0.07 0.07 0.06 0.05 0.06 0.06 0.07 0.06 0.06 0.07 0.08 0.06 0.07 0.08 0.09 0.08 0.07 0.07 0.07 0.09
0.05 0.05 0.06 0.06 0.06 0.06 0.07 0.06 0.06 0.07 0.07 0.07 0.08 0.09 0.10 0.10 0.10 0.08 0.07 0.07 0.06 0.05 0.05 0.05 0.05 0.06 0.08 0.10 0.09 0.07 0.06 0.08 0.08 0.09 0.08 0.08 0.08 0.09
0.05 0.05 0.05 0.06 0.07 0.09 0.08 0.08 0.07 0.07 0.08 0.10 0.09 0.09 0.10 0.10 0.09 0.07 0.06 0.05 0.05 0.04 0.05 0.05 0.06 0.08 0.10 0.11 0.09 0.08 0.08 0.08 0.08 0.10 0.11 0.10 0.09 0.07
0.06 0.05 0.05 0.05 0.07 0.08 0.08 0.08 0.08 0.09 0.11 0.11 0.10 0.10 0.10 0.11 0.10 0.08 0.07 0.06 0.06 0.06 0.05 0.06 0.08 0.08 0.09 0.09 0.10 0.11 0.10 0.09 0.08 0.08 0.07 0.06 0.07 0.07
MSLP
1016.73 1016.70 1016.73 1016.80 1016.87 1016.92 1016.89 1016.75 1016.49 1016.11 1015.62 1015.06 1014.48 1013.93 1013.46 1013.11 1012.89 1012.82 1012.87 1013.03 1013.26 1013.52 1013.79 1014.05 1014.28 1014.49 1014.67 1014.83 1014.98 1015.12 1015.25 1015.37 1015.48 1015.58 1015.66 1015.72 1015.78 1015.82
1016.38 1016.30 1016.29 1016.33 1016.39 1016.45 1016.45 1016.36 1016.16 1015.83 1015.38 1014.85 1014.28 1013.70 1013.19 1012.76 1012.44 1012.26 1012.20 1012.24 1012.37 1012.56 1012.79 1013.04 1013.30 1013.56 1013.82 1014.07 1014.31 1014.53 1014.74 1014.93 1015.09 1015.22 1015.32 1015.40 1015.45 1015.48
1016.05 1015.92 1015.85 1015.85 1015.89 1015.94 1015.95 1015.89 1015.72 1015.44 1015.04 1014.56 1014.01 1013.45 1012.91 1012.43 1012.05 1011.76 1011.58 1011.51 1011.53 1011.62 1011.77 1011.97 1012.21 1012.47 1012.76 1013.07 1013.38 1013.68 1013.97 1014.24 1014.47 1014.66 1014.82 1014.94 1015.02 1015.07
1015.73 1015.55 1015.43 1015.39 1015.39 1015.40 1015.40 1015.34 1015.20 1014.96 1014.62 1014.19 1013.70 1013.17 1012.64 1012.15 1011.72 1011.36 1011.08 1010.89 1010.78 1010.74 1010.78 1010.88 1011.04 1011.26 1011.53 1011.85 1012.19 1012.54 1012.90 1013.25 1013.57 1013.85 1014.10 1014.30 1014.46 1014.58
1015.38 1015.17 1015.02 1014.92 1014.87 1014.85 1014.82 1014.75 1014.62 1014.41 1014.13 1013.76 1013.33 1012.86 1012.38 1011.91 1011.45 1011.04 1010.68 1010.38 1010.13 1009.95 1009.84 1009.81 1009.85 1009.97 1010.16 1010.43 1010.76 1011.13 1011.54 1011.96 1012.37 1012.77 1013.14 1013.47 1013.75 1013.98
1014.99 1014.76 1014.58 1014.45 1014.35 1014.29 1014.22 1014.13 1014.00 1013.82 1013.57 1013.27 1012.91 1012.51 1012.09 1011.65 1011.21 1010.77 1010.35 1009.94 1009.58 1009.25 1008.98 1008.78 1008.66 1008.63 1008.70 1008.88 1009.15 1009.50 1009.93 1010.41 1010.92 1011.44 1011.96 1012.44 1012.89 1013.27
1014.53 1014.30 1014.11 1013.95 1013.83 1013.72 1013.61 1013.50 1013.35 1013.18 1012.96 1012.71 1012.41 1012.08 1011.72 1011.33 1010.91 1010.47 1010.00 1009.53 1009.05 1008.59 1008.16 1007.79 1007.50 1007.31 1007.23 1007.28 1007.46 1007.77 1008.19 1008.70 1009.30 1009.94 1010.61 1011.27 1011.89 1012.45
1014.01 1013.81 1013.62 1013.46 1013.30 1013.16 1013.02 1012.86 1012.70 1012.51 1012.30 1012.07 1011.82 1011.53 1011.22 1010.87 1010.48 1010.05 1009.57 1009.05 1008.49 1007.93 1007.37 1006.86 1006.41 1006.06 1005.83 1005.75 1005.82 1006.06 1006.45 1006.99 1007.64 1008.38 1009.19 1010.01 1010.81 1011.56
1013.49 1013.32 1013.15 1012.98 1012.82 1012.64 1012.46 1012.26 1012.05 1011.83 1011.60 1011.36 1011.12 1010.85 1010.56 1010.24 1009.87 1009.46 1008.97 1008.44 1007.84 1007.22 1006.58 1005.97 1005.41 1004.94 1004.59 1004.39 1004.37 1004.53 1004.88 1005.40 1006.09 1006.90 1007.81 1008.76 1009.71 1010.61
1013.03 1012.89 1012.75 1012.59 1012.41 1012.20 1011.97 1011.72 1011.45 1011.17 1010.88 1010.60 1010.32 1010.03 1009.73 1009.41 1009.05 1008.64 1008.18 1007.65 1007.06 1006.43 1005.78 1005.13 1004.52 1003.98 1003.56 1003.29 1003.19 1003.29 1003.58 1004.08 1004.77 1005.61 1006.57 1007.60 1008.65 1009.67
1012.70 1012.59 1012.46 1012.31 1012.11 1011.87 1011.58 1011.26 1010.91 1010.54 1010.17 1009.80 1009.45 1009.10 1008.76 1008.41 1008.04 1007.63 1007.19 1006.69 1006.14 1005.55 1004.94 1004.32 1003.73 1003.20 1002.76 1002.46 1002.32 1002.37 1002.62 1003.08 1003.73 1004.56 1005.52 1006.57 1007.66 1008.74
1012.52 1012.43 1012.31 1012.14 1011.92 1011.62 1011.27 1010.86 1010.42 1009.95 1009.48 1009.00 1008.55 1008.11 1007.70 1007.29 1006.89 1006.48 1006.05 1005.60 1005.12 1004.60 1004.07 1003.54 1003.02 1002.55 1002.16 1001.87 1001.73 1001.75 1001.96 1002.37 1002.96 1003.73 1004.65 1005.67 1006.74 1007.82
1012.49 1012.40 1012.26 1012.06 1011.79 1011.43 1011.00 1010.51 1009.97 1009.39 1008.81 1008.22 1007.66 1007.12 1006.61 1006.14 1005.70 1005.27 1004.86 1004.45 1004.04 1003.62 1003.19 1002.77 1002.36 1001.98 1001.66 1001.43 1001.30 1001.32 1001.50 1001.84 1002.37 1003.06 1003.89 1004.83 1005.84 1006.87
1012.52 1012.40 1012.22 1011.97 1011.64 1011.21 1010.70 1010.13 1009.50 1008.83 1008.15 1007.46 1006.80 1006.17 1005.59 1005.05 1004.55 1004.11 1003.70 1003.32 1002.97 1002.64 1002.31 1002.00 1001.70 1001.43 1001.19 1001.02 1000.93 1000.94 1001.08 1001.38 1001.82 1002.41 1003.14 1003.99 1004.91 1005.87
1012.48 1012.32 1012.08 1011.76 1011.36 1010.86 1010.29 1009.65 1008.96 1008.23 1007.48 1006.74 1006.01 1005.32 1004.67 1004.08 1003.54 1003.07 1002.66 1002.30 1001.99 1001.71 1001.46 1001.24 1001.03 1000.83 1000.67 1000.54 1000.47 1000.48 1000.60 1000.83 1001.19 1001.69 1002.31 1003.05 1003.88 1004.75
1012.26 1012.03 1011.73 1011.34 1010.86 1010.31 1009.69 1009.02 1008.30 1007.55 1006.79 1006.03 1005.29 1004.58 1003.91 1003.29 1002.73 1002.24 1001.81 1001.45 1001.14 1000.89 1000.68 1000.49 1000.32 1000.17 1000.04 999.94 999.87 999.87 999.94 1000.11 1000.40 1000.81 1001.34 1001.99 1002.72 1003.52
1011.76 1011.46 1011.09 1010.63 1010.11 1009.53 1008.89 1008.22 1007.52 1006.81 1006.08 1005.36 1004.66 1003.97 1003.32 1002.71 1002.14 1001.64 1001.19 1000.81 1000.49 1000.21 999.99 999.79 999.62 999.46 999.32 999.20 999.11 999.07 999.10 999.22 999.43 999.77 1000.22 1000.79 1001.46 1002.21
1010.97 1010.61 1010.18 1009.68 1009.13 1008.54 1007.93 1007.30 1006.66 1006.02 1005.38 1004.75 1004.12 1003.50 1002.90 1002.32 1001.77 1001.26 1000.80 1000.38 1000.02 999.70 999.42 999.18 998.96 998.75 998.56 998.39 998.25 998.16 998.13 998.19 998.35 998.62 999.01 999.53 1000.15 1000.86
1009.98 1009.58 1009.11 1008.60 1008.05 1007.49 1006.93 1006.36 1005.81 1005.27 1004.74 1004.21 1003.68 1003.15 1002.62 1002.09 1001.56 1001.06 1000.58 1000.13 999.71 999.34 998.99 998.67 998.37 998.09 997.83 997.59 997.39 997.23 997.14 997.14 997.24 997.47 997.81 998.28 998.87 999.56
1008.94 1008.53 1008.06 1007.56 1007.04 1006.53 1006.03 1005.55 1005.09 1004.65 1004.22 1003.79 1003.35 1002.90 1002.43 1001.94 1001.44 1000.94 1000.45 999.97 999.51 999.07 998.65 998.26 997.89 997.53 997.19 996.88 996.61 996.38 996.24 996.18 996.23 996.40 996.71 997.15 997.71 998.39
1008.05 1007.65 1007.21 1006.75 1006.28 1005.82 1005.38 1004.97 1004.58 1004.21 1003.85 1003.49 1003.11 1002.70 1002.27 1001.81 1001.32 1000.82 1000.31 999.81 999.31 998.83 998.36 997.91 997.48 997.06 996.67 996.29 995.96 995.68 995.48 995.37 995.37 995.50 995.76 996.17 996.70 997.36
1007.48 1007.12 1006.73 1006.31 1005.89 1005.48 1005.09 1004.71 1004.36 1004.02 1003.67 1003.32 1002.94 1002.53 1002.09 1001.62 1001.12 1000.60 1000.07 999.55 999.03 998.53 998.04 997.57 997.10 996.66 996.23 995.82 995.45 995.13 994.88 994.72 994.68 994.76 994.98 995.34 995.85 996.48
1007.33 1007.02 1006.67 1006.31 1005.92 1005.54 1005.16 1004.79 1004.42 1004.04 1003.65 1003.25 1002.81 1002.34 1001.84 1001.31 1000.77 1000.22 999.67 999.13 998.60 998.10 997.61 997.14 996.69 996.24 995.81 995.40 995.01 994.67 994.39 994.19 994.10 994.14 994.31 994.63 995.09 995.69
Thickness
5759 5757 5755 5755 5755 5754 5752 5748 5739 5733 5736 5743 5746 5749 5749 5748 5745 5742 5739 5737 5735 5732 5730 5728 5726 5724 5723 5721 5720 5718 5716 5715 5713 5711 5710 5708 5707 5705
5757 5755 5753 5753 5752 5751 5749 5747 5744 5737 5733 5739 5741 5744 5745 5744 5741 5739 5737 5735 5732 5730 5728 5726 5724 5722 5721 5719 5717 5716 5714 5712 5710 5708 5706 5705 5704 5702
5755 5752 5750 5749 5748 5747 5746 5744 5742 5738 5732 5735 5739 5741 5740 5738 5736 5735 5733 5731 5729 5728 5726 5724 5722 5720 5718 5717 5715 5713 5711 5709 5707 5705 5703 5702 5701 5699
5751 5748 5747 5746 5743 5742 5740 5739 5737 5736 5732 5728 5732 5734 5734 5734 5732 5730 5729 5728 5727 5725 5724 5722 5719 5717 5715 5713 5712 5710 5708 5706 5704 5702 5701 5699 5697 5694
5748 5745 5743 5741 5738 5737 5735 5733 5733 5733 5731 5727 5727 5729 5729 5728 5726 5724 5724 5722 5722 5721 5719 5718 5716 5714 5712 5710 5708 5707 5704 5703 5701 5699 5697 5695 5693 5691
5746 5743 5741 5738 5735 5732 5731 5729 5728 5726 5725 5722 5721 5721 5721 5721 5719 5715 5714 5714 5714 5716 5715 5713 5711 5710 5708 5706 5704 5702 5701 5699 5697 5695 5693 5690 5688 5686
5742 5740 5738 5735 5732 5729 5726 5724 5722 5720 5718 5715 5714 5713 5711 5710 5709 5709 5706 5706 5707 5708 5707 5706 5705 5704 5702 5701 5699 5698 5696 5694 5693 5691 5688 5686 5683 5681
5736 5735 5733 5731 5728 5724 5722 5719 5717 5714 5711 5709 5707 5704 5703 5703 5702 5700 5698 5696 5695 5700 5699 5698 5699 5698 5698 5696 5695 5693 5691 5690 5688 5686 5683 5681 5678 5676
5732 5730 5728 5728 5723 5720 5717 5716 5713 5711 5709 5705 5701 5700 5698 5698 5696 5693 5691 5689 5688 5692 5690 5689 5691 5690 5692 5692 5691 5689 5686 5684 5682 5680 5678 5675 5673 5670
5728 5726 5723 5721 5718 5714 5712 5710 5708 5707 5705 5702 5700 5698 5696 5695 5692 5689 5686 5685 5685 5685 5685 5680 5683 5683 5685 5684 5684 5684 5681 5679 5676 5674 5672 5669 5667 5664
5723 5722 5719 5715 5712 5709 5705 5702 5700 5700 5700 5697 5696 5694 5692 5689 5687 5682 5678 5675 5673 5675 5676 5674 5675 5674 5675 5675 5676 5676 5674 5672 5670 5667 5665 5663 5660 5657
5715 5715 5712 5709 5705 5701 5697 5694 5692 5692 5691 5690 5688 5686 5685 5683 5680 5676 5673 5668 5666 5666 5669 5667 5666 5665 5664 5666 5667 5666 5665 5663 5662 5660 5658 5655 5652 5648
5706 5706 5705 5701 5697 5693 5689 5687 5686 5684 5682 5681 5679 5678 5677 5676 5674 5671 5669 5665 5661 5661 5663 5661 5658 5657 5655 5655 5657 5657 5657 5655 5653 5651 5649 5648 5645 5643
5696 5696 5695 5692 5688 5685 5682 5681 5679 5676 5674 5672 5670 5670 5669 5668 5667 5665 5664 5662 5660 5658 5658 5656 5652 5649 5647 5646 5646 5648 5649 5648 5647 5645 5644 5642 5639 5637
5687 5686 5684 5682 5679 5678 5676 5674 5671 5668 5666 5664 5662 5662 5662 5662 5661 5658 5656 5655 5653 5652 5652 5650 5647 5644 5642 5639 5639 5639 5639 5640 5640 5639 5637 5635 5633 5631
5677 5676 5675 5674 5672 5670 5669 5667 5665 5663 5660 5658 5656 5656 5656 5654 5652 5649 5647 5645 5642 5641 5643 5642 5640 5637 5634 5634 5632 5632 5632 5632 5632 5631 5630 5629 5627 5626
5667 5667 5667 5666 5665 5664 5662 5661 5659 5657 5653 5651 5648 5647 5646 5644 5642 5641 5638 5635 5633 5632 5631 5632 5632 5630 5629 5627 5624 5625 5625 5625 5625 5624 5622 5620 5620 5620
5657 5658 5658 5657 5656 5655 5653 5652 5651 5648 5646 5643 5641 5639 5636 5634 5632 5632 5630 5627 5624 5624 5623 5623 5622 5620 5619 5620 5620 5618 5618 5617 5617 5617 5615 5613 5613 5614
5649 5652 5651 5650 5649 5647 5646 5644 5642 5641 5638 5635 5633 5630 5628 5626 5625 5623 5621 5619 5617 5616 5616 5616 5614 5611 5608 5608 5612 5612 5610 5609 5609 5608 5608 5606 5606 5607
5647 5647 5646 5644 5642 5640 5637 5635 5633 5631 5629 5626 5623 5622 5620 5618 5616 5614 5612 5611 5610 5609 5609 5608 5607 5605 5602 5602 5603 5604 5604 5603 5601 5600 5600 5600 5599 5599
5642 5640 5639 5636 5634 5631 5628 5625 5623 5621 5619 5616 5615 5613 5611 5608 5606 5605 5605 5604 5602 5602 5600 5600 5600 5600 5600 5598 5596 5596 5596 5597 5596 5593 5593 5592 5590 5590
5635 5633 5630 5628 5625 5622 5620 5617 5615 5612 5610 5608 5605 5604 5602 5600 5598 5597 5597 5597 5596 5595 5594 5594 5594 5593 5592 5589 5588 5587 5588 5588 5588 5587 5587 5587 5584 5583
5627 5624 5622 5620 5617 5613 5611 5608 5606 5604 5601 5599 5597 5596 5595 5593 5592 5590 5589 5589 5588 5588 5587 5586 5586 5585 5583 5582 5581 5580 5580 5581 5580 5579 5578 5579 5580 5579